Vorticity
9 1 6 3 6 4 3 4 4 4 5 5 5 4 4 5 5 5 5 4 4 4 4 5 5 5 7 10 7 4 8 6 3 4 5 4 5 4 5 4 4 2 3
-0 -0 8 9 6 5 4 5 5 4 5 5 5 6 5 4 5 5 5 5 5 4 4 5 5 5 5 6 10 11 8 6 6 4 4 3 4 5 5 4 2 3 2
9 -8 6 4 6 4 5 9 7 7 6 5 4 2 4 3 4 3 2 2 3 3 3 4 4 5 5 5 5 9 13 8 7 5 5 2 4 3 3 4 5 4 3
3 3 4 5 5 5 4 3 3 2 1 2 2 3 5 6 5 4 2 2 2 3 3 3 2 4 4 4 5 6 7 13 12 8 5 4 4 5 5 4 4 4 5
4 3 4 4 4 4 3 3 2 2 2 3 3 3 2 1 1 1 3 3 3 4 4 7 9 4 2 4 4 3 5 7 11 12 9 7 3 2 7 6 5 3 1
3 3 3 4 3 2 2 2 2 2 2 1 2 2 3 3 4 6 9 9 9 9 9 8 -0 6 10 4 3 4 4 3 6 10 13 11 7 4 -1 3 5 6 1
3 4 4 2 3 3 3 4 6 7 7 7 8 8 8 8 7 6 7 7 7 7 7 6 6 8 1 5 7 3 4 5 4 5 8 12 12 8 6 -0 2 1 1
7 4 3 3 3 3 3 4 7 7 7 7 7 7 7 6 7 7 6 6 6 6 6 7 8 8 6 7 5 7 6 4 5 4 5 7 12 12 8 7 4 7 4
4 5 3 2 2 2 5 7 7 7 7 6 6 6 5 4 4 4 3 3 3 4 4 4 4 5 6 7 7 7 6 7 5 3 5 5 7 11 12 8 1 2 9
3 4 2 3 3 4 4 4 5 5 4 4 4 4 4 3 3 3 3 3 3 3 3 3 3 3 3 4 5 6 6 8 6 6 4 2 4 7 11 12 5 -2 5
6 2 2 3 4 4 5 5 4 4 4 4 4 3 3 3 3 3 2 3 3 3 3 3 3 3 3 3 3 3 4 6 6 8 7 7 4 3 7 14 11 2 -2
5 6 5 6 6 5 4 4 4 4 4 4 4 4 4 4 5 5 5 5 5 5 4 4 3 3 3 3 3 3 3 3 4 5 7 9 8 7 4 3 13 13 -2
8 7 7 5 5 4 4 3 3 4 4 4 5 5 5 5 6 6 6 6 6 7 7 7 7 6 6 5 3 3 3 3 2 3 4 5 8 9 7 5 4 14 9
5 6 6 5 4 3 4 4 5 5 5 5 5 5 6 6 6 7 7 7 7 7 7 7 7 8 8 8 8 8 6 5 3 4 3 3 5 7 9 9 4 4 13
4 4 4 4 4 5 5 4 4 5 6 6 6 6 6 7 6 6 5 6 6 7 7 6 6 5 5 5 5 7 8 8 8 6 5 3 3 4 7 8 10 5 5
5 5 5 5 5 5 6 7 7 7 7 7 7 8 8 8 8 9 9 10 9 7 7 7 7 7 8 8 8 7 7 6 5 6 8 6 4 5 4 6 9 11 4
5 6 6 7 7 7 6 6 6 7 7 8 8 8 9 7 7 5 4 5 5 5 6 7 8 9 9 9 8 7 7 8 11 10 8 6 7 6 5 5 5 8 12
7 7 7 6 6 6 6 7 8 9 8 7 8 6 4 4 5 5 6 6 6 7 7 6 4 3 6 7 6 6 6 6 4 6 10 13 11 7 5 7 6 5 7
6 6 5 6 6 8 8 9 8 6 8 9 8 4 3 4 5 3 5 5 5 4 5 5 5 6 7 8 9 8 4 2 4 6 5 4 8 14 12 7 6 7 6
6 6 6 7 9 8 9 6 7 8 7 7 4 4 5 4 3 2 2 3 7 11 13 13 12 12 11 11 10 10 10 12 13 12 13 9 5 4 5 14 12 8 8
6 6 6 8 7 8 5 7 8 6 6 6 7 6 3 2 2 6 12 12 10 10 11 12 12 13 13 12 12 12 12 10 10 10 11 12 12 12 7 5 5 15 10
5 6 8 9 8 6 7 7 7 7 7 4 3 1 2 4 8 8 8 8 7 7 7 7 7 8 9 11 12 10 13 13 14 14 13 12 11 13 13 11 7 5 10
7 8 9 9 6 7 6 6 6 1 -1 2 3 6 10 9 9 8 8 7 8 11 11 10 10 9 9 8 10 10 16 9 11 9 11 11 17 15 17 15 13 11 8
8 9 10 7 5 6 6 2 -2 -1 4 8 7 8 8 10 9 8 10 11 11 10 9 8 8 9 11 10 9 9 12 15 14 20 6 15 10 9 12 16 15 13 13
9 9 8 6 6 5 1 -3 -2 7 9 8 7 8 9 7 9 10 10 9 9 8 9 11 12 12 11 11 12 13 12 10 11 16 20 9 14 18 12 11 13 16 14
10 8 6 5 5 2 -3 -3 7 10 8 5 8 8 7 9 10 9 8 8 8 9 9 10 11 14 14 14 14 15 13 12 12 11 15 15 14 13 17 16 14 13 17
Height
3173 3174 3175 3172 3171 3171 3173 3175 3175 3175 3175 3175 3174 3174 3174 3173 3172 3172 3171 3170 3169 3168 3167 3166 3164 3163 3162 3160 3159 3158 3158 3158 3158 3157 3158 3158 3159 3158 3158 3159 3160 3160 3160
3173 3173 3172 3171 3173 3174 3175 3176 3176 3175 3175 3175 3176 3175 3174 3173 3172 3172 3171 3170 3169 3168 3167 3166 3165 3164 3162 3161 3160 3158 3158 3158 3158 3158 3158 3159 3159 3159 3159 3159 3160 3160 3160
3172 3171 3174 3175 3175 3176 3177 3177 3176 3176 3176 3176 3175 3175 3173 3172 3172 3171 3170 3169 3168 3167 3166 3166 3165 3164 3163 3161 3160 3160 3159 3158 3158 3158 3158 3158 3158 3158 3159 3159 3160 3160 3160
3172 3173 3174 3175 3176 3175 3176 3176 3175 3175 3175 3175 3175 3174 3173 3173 3172 3171 3170 3169 3168 3167 3166 3165 3164 3163 3162 3161 3160 3159 3159 3158 3158 3158 3158 3159 3158 3157 3158 3159 3158 3159 3159
3172 3173 3174 3174 3176 3175 3175 3176 3175 3175 3175 3175 3174 3173 3172 3171 3170 3170 3169 3168 3167 3166 3165 3164 3163 3162 3161 3160 3159 3158 3158 3157 3157 3157 3158 3158 3158 3158 3157 3157 3157 3158 3158
3173 3173 3174 3175 3175 3175 3175 3175 3175 3175 3174 3174 3173 3172 3171 3170 3169 3169 3168 3167 3166 3165 3164 3163 3162 3161 3160 3159 3158 3157 3157 3156 3156 3156 3156 3157 3157 3158 3158 3156 3156 3155 3156
3172 3173 3174 3175 3174 3175 3174 3174 3173 3173 3173 3173 3172 3171 3170 3169 3168 3167 3166 3165 3165 3164 3163 3162 3160 3160 3159 3158 3157 3156 3157 3156 3155 3154 3154 3154 3154 3155 3156 3156 3155 3154 3154
3171 3172 3173 3174 3173 3173 3173 3173 3172 3171 3171 3170 3169 3169 3168 3167 3166 3165 3164 3163 3163 3162 3161 3160 3159 3158 3157 3156 3155 3155 3155 3154 3154 3154 3153 3152 3151 3151 3152 3152 3153 3152 3152
3170 3171 3171 3172 3172 3171 3171 3170 3170 3169 3169 3168 3168 3167 3166 3165 3164 3163 3162 3161 3160 3159 3159 3158 3156 3155 3154 3153 3153 3152 3152 3152 3152 3151 3151 3150 3149 3148 3148 3148 3148 3149 3149
3168 3169 3169 3169 3169 3169 3169 3168 3168 3167 3166 3166 3165 3165 3164 3163 3162 3161 3160 3159 3158 3157 3156 3155 3154 3153 3151 3150 3149 3148 3148 3148 3148 3147 3148 3148 3147 3147 3145 3144 3145 3146 3146
3166 3167 3167 3168 3167 3167 3167 3166 3166 3165 3165 3163 3163 3162 3161 3160 3159 3158 3157 3156 3156 3154 3153 3152 3151 3150 3149 3147 3146 3145 3144 3143 3142 3143 3143 3142 3143 3143 3143 3142 3140 3140 3142
3165 3166 3165 3166 3165 3165 3164 3163 3162 3161 3160 3160 3159 3158 3158 3157 3156 3155 3154 3153 3152 3151 3150 3148 3147 3145 3144 3143 3142 3141 3140 3139 3137 3136 3136 3137 3137 3137 3137 3138 3138 3137 3137
3163 3163 3163 3162 3161 3161 3160 3159 3158 3157 3156 3155 3155 3154 3153 3152 3151 3150 3148 3147 3146 3145 3144 3142 3141 3140 3139 3138 3136 3135 3135 3134 3133 3132 3131 3130 3130 3131 3131 3130 3131 3133 3134
3160 3160 3159 3159 3158 3157 3156 3155 3154 3154 3153 3152 3150 3149 3148 3146 3145 3144 3143 3141 3140 3138 3137 3135 3134 3133 3132 3131 3130 3129 3128 3127 3126 3125 3125 3125 3124 3124 3124 3124 3125 3125 3126
3156 3155 3155 3155 3154 3154 3153 3153 3152 3150 3149 3147 3145 3144 3142 3141 3139 3138 3136 3134 3134 3133 3131 3130 3128 3126 3125 3124 3122 3121 3121 3120 3119 3117 3117 3118 3117 3117 3116 3116 3116 3117 3118
3153 3153 3152 3152 3152 3151 3150 3149 3147 3146 3144 3143 3141 3140 3138 3137 3135 3133 3131 3129 3127 3126 3124 3123 3121 3119 3117 3115 3114 3112 3111 3110 3110 3109 3108 3109 3109 3108 3108 3108 3108 3108 3108
3149 3149 3149 3148 3147 3146 3145 3143 3142 3140 3139 3137 3135 3134 3133 3131 3129 3127 3125 3124 3121 3119 3116 3114 3112 3110 3108 3106 3104 3103 3100 3099 3099 3098 3097 3097 3098 3098 3098 3098 3098 3099 3099
3145 3144 3144 3142 3141 3140 3138 3137 3135 3134 3132 3131 3129 3127 3125 3124 3122 3119 3118 3116 3114 3112 3110 3107 3103 3101 3098 3095 3093 3091 3089 3088 3087 3086 3084 3084 3084 3085 3086 3087 3087 3088 3088
3138 3137 3137 3136 3135 3133 3132 3131 3130 3128 3126 3125 3123 3122 3120 3118 3116 3114 3111 3108 3105 3101 3098 3094 3092 3088 3086 3083 3080 3080 3078 3076 3075 3073 3072 3071 3070 3070 3070 3071 3073 3074 3076
3132 3132 3131 3130 3129 3128 3127 3126 3125 3124 3122 3121 3119 3117 3115 3112 3110 3107 3103 3099 3096 3092 3089 3085 3081 3078 3072 3069 3067 3064 3063 3062 3061 3060 3057 3058 3057 3055 3055 3056 3058 3060 3061
3125 3125 3124 3124 3123 3122 3122 3121 3120 3118 3116 3114 3112 3109 3106 3102 3099 3096 3093 3090 3086 3083 3079 3074 3069 3064 3062 3056 3053 3052 3050 3048 3047 3042 3044 3043 3041 3041 3042 3041 3042 3043 3045
3118 3118 3118 3118 3118 3117 3117 3115 3114 3112 3110 3108 3105 3102 3097 3093 3089 3085 3081 3077 3072 3068 3064 3060 3055 3051 3048 3044 3038 3035 3031 3036 3030 3033 3029 3025 3025 3022 3025 3026 3024 3028 3029
3112 3112 3113 3113 3112 3112 3111 3110 3109 3107 3104 3100 3096 3093 3089 3084 3078 3073 3068 3064 3061 3056 3052 3049 3043 3038 3033 3031 3026 3021 3015 3011 3008 3013 3014 3011 3008 3008 3008 3007 3007 3009 3012
3106 3107 3107 3106 3106 3106 3105 3103 3101 3099 3095 3092 3090 3086 3081 3075 3071 3065 3060 3055 3051 3046 3042 3037 3032 3026 3021 3016 3012 3008 3004 2999 2991 2988 2993 2993 2991 2992 2991 2990 2990 2993 2994
3099 3100 3100 3100 3099 3098 3097 3095 3093 3090 3087 3083 3078 3076 3072 3068 3062 3056 3051 3046 3041 3035 3030 3025 3019 3014 3009 3003 2998 2993 2988 2985 2980 2974 2966 2969 2971 2970 2970 2974 2974 2975 2976
3092 3093 3093 3093 3092 3091 3090 3088 3085 3080 3076 3073 3068 3064 3059 3055 3052 3047 3041 3035 3029 3024 3019 3013 3006 3001 2995 2989 2985 2981 2976 2970 2965 2962 2954 2953 2948 2950 2951 2950 2955 2958 2959